Location: Bremen
(53.0793°N, 8.8017°E)
Time: 21:29:10
(UTC+02:00)

Envisat - Pass Details

Date: 27 February 2024
Orbit: 762 x 764 km, 98.3° (Epoch: 13 April)

Event Time Altitude Azimuth Distance (km) Brightness Sun altitude
Rises 04:51:46 0° 11° (N) 3,245 6.6 -22.6°
Reaches altitude 10° 04:54:09 10° 5° (N) 2,314 5.7 -22.2°
Maximum altitude 04:58:58 44° 295° (WNW) 1,059 3.3 -21.5°
Enters shadow 04:59:08 44° 289° (WNW) 1,062 3.3 -21.5°
